Limoges-Bellegarde Airport

Airport
ICAO code: 
LFBL
Summary
ICAO Region: 
EUR
Territory: 
Location: 
Limoges, Limousin, France,
Coordinates: 
Aerial View: 
45° 51' 46.082" N, 1° 10' 45.984" E
Metar
Observation
LFBL 210500Z AUTO 02009KT 9999 BKN014 M00/M03 Q1031 NOSIG
Station
Limoges
Date/Time
2022-01-21 05:00:00
Wind direction
20°
Wind speed
09 kts
Lowest cloud amount
broken clouds
Temperature
-0°C
Dew point
-3°C
Humidity
80%
QNH
1031 hPa
Weather condition
n/a

Description

International airport 6 km west-northwest of Limoges, France.

Climatology

Temperate Marine climate/Oceanic climate (Köppen climate classification Cfb). Moderately cool summer and comparatively warm winter with a temperature range of only 14°C. Prevailing south-westerly winds from the Atlantic Ocean.

Runways

Designator Length Width Surface Rops
3/21 2500 45 ASP Yes/Yes
Airport map: 
Aerial View: 

Accidents and Serious Incidents at or in the vicinity of LFBL

SKYbrary Partners:

Safety knowledge contributed by: